Regional Weather Roundup
Issued by NWS Cleveland, OH

Home | Current Version | Previous Version | Text Only | Print | Product List | Glossary Off
Versions: 1 2 3 4 5 6 7 8 9 10 11 12 13 14 15 16 17 18 19 20 21 22 23 24 25 26 27 28 29 30 31 32 33 34 35 36 37 38 39 40 41 42 43 44 45 46 47 48 49 50

000
ASUS41 KCLE 291010
RWRCLE
OHIO REGIONAL WEATHER ROUNDUP
NATIONAL WEATHER SERVICE WILMINGTON, OH
600 AM EDT FRI AUG 29 2014

NOTE: "FAIR" INDICATES FEW OR NO CLOUDS BELOW 12,000 FEET WITH NO
SIGNIFICANT WEATHER AND/OR OBSTRUCTIONS TO VISIBILITY.

OHZ001>008-015>018-024>027-034-035-043-044-291100-
   NORTHWEST OHIO

CITY           SKY/WX    TMP DP  RH WIND       PRES   REMARKS
DEFIANCE       MOCLDY    60  54  80 E5        30.10S
FINDLAY        PTCLDY    58  53  84 SE7       30.10S
TOLEDO EXPRESS PTCLDY    57  50  77 CALM      30.11R
TOLEDO METCALF CLEAR     56  50  80 E5        30.12S
LIMA           PTCLDY    61  54  77 SE10      30.10S
$$

OHZ009>014-019>023-028>033-038-089-291100-
   NORTHEAST OHIO

CITY           SKY/WX    TMP DP  RH WIND       PRES   REMARKS
CLE-HOPKINS    PTCLDY    52  49  89 SE3       30.17R
CLE-LAKEFRONT  CLEAR     56  50  80 S8        30.15R
CUY CO. ARPT   NOT AVBL
LORAIN-ELYRIA  CLEAR     53  48  83 CALM      30.15R
ASHTABULA      CLEAR     48  47  96 CALM      30.18R
AKRON-CANTON   CLEAR     55  48  77 E7        30.15R
WOOSTER        CLEAR     47  45  93 CALM      30.16R
MANSFIELD      CLEAR     55  51  86 SE6       30.14S
YOUNGSTOWN     PTCLDY    49  47  93 E7        30.16R
$$

OHZ042-051>053-060>062-070>072-077>081-291100-
  SOUTHWEST OHIO

CITY           SKY/WX    TMP DP  RH WIND       PRES   REMARKS
CINC-COVINGTON PTCLDY    67  60  78 E7        30.07S
CINC-LUNKEN    PTCLDY    64  61  90 N3        30.08R
HAMILTON       MOCLDY    64  60  87 E3        30.09R
DAYTON         PTCLDY    64  57  78 E8        30.10S
WRIGHT-PAT AFB PTCLDY    63  58  83 E6        30.10S
DAYTON GENERAL PTCLDY    63  59  87 E7        30.09R
WILMINGTON     PTCLDY    60  56  86 E5        30.10S
$$

OHZ036-037-039>041-045>050-054>059-063>069-073>076-082>088-291100-
  CENTRAL AND SOUTHEAST OHIO

CITY           SKY/WX    TMP DP  RH WIND       PRES   REMARKS
COLUMBUS       PTCLDY    61  52  72 E5        30.11S
OSU AIRPORT    CLEAR     58  52  80 E3        30.12S
BOLTON FIELD   CLEAR     58  54  86 E3        30.13R
RICKENBACK AFB CLEAR     58  51  78 E5        30.11S
NEWARK         CLEAR     56  52  86 CALM      30.13S
MARION         CLEAR     56  51  84 SE6       30.13R
LANCASTER      CLEAR     59  53  80 E5        30.13R
ZANESVILLE     CLEAR     54  50  86 CALM      30.14R
NEW PHILLY     CLOUDY    50  49  96 CALM      30.16S
$$



USA.gov is the U.S. government's official web portal to all federal, state and local government web resources and services.